Regional Weather Roundup
Issued by NWS Sterling, VA

Home | Current Version | Previous Version | Text Only | Print | Product List | Glossary On
Versions: 1 2 3 4 5 6 7 8 9 10 11 12 13 14 15 16 17 18 19 20 21 22 23 24 25 26 27 28 29 30 31 32 33 34 35 36 37 38 39 40 41 42 43 44 45 46 47 48 49 50
000
ASUS41 KLWX 141010
RWRLWX

REGIONAL WEATHER ROUNDUP
NATIONAL WEATHER SERVICE BALTIMORE MD/WASHINGTON DC
500 AM EST SUN FEB 14 2016

Note: "FAIR" indicates few or no clouds below 12,000 feet
with no significant weather and/or obstructions to visibility.
 TC=TEMPERATURE CELSIUS

 * =Non NWS site. Station does not report precipitation (e.g. rain,
    snow, etc.), thunder, or fog.

DCZ001-MDZ009-015-VAZ040>042-051-053>054-141100-
WASHINGTON METRO

CITY           SKY/WX    TMP DP  RH WIND       PRES   REMARKS
WASHINGTON NAT FAIR      14  -3  47 W10       30.52R WCI   1
DULLES         FAIR       9  -3  58 NW5       30.49R
ANDREWS AFB    CLEAR     12  -3  51 W10       30.48R WCI  -1
FT BELVOIR     FAIR      12  -3  51 W7        30.52R
QUANTICO       FAIR      14  -2  49 VRB6      30.55R
COLLEGE PARK*  FAIR      14   0  52 W3        30.50R
LEESBURG*      FAIR      12   3  67 W6        30.49R
MANASSAS*      FAIR      12   1  62 CALM      30.51R
GAITHERSBURG*  CLEAR      9  -2  61 W8        30.49R WCI  -4

$$

MDZ006>007-011-014-141100-
BALTIMORE METRO

CITY           SKY/WX    TMP DP  RH WIND       PRES   REMARKS
BWI AIRPORT    PTCLDY    10  -3  55 W8        30.48R WCI  -2
MD SCIENCE CTR   N/A     13  -5  44 MISG      30.50R
MARTIN STATE   CLEAR     14   0  52 W6        30.50R
ANNAPOLIS      CLEAR     12  -2  53 W5        30.50R
FORT MEADE*    PTCLDY    10   1  67 W6        30.50R

$$

MDZ012-015-019>023-141100-
MARYLAND EASTERN SHORE

CITY           SKY/WX    TMP DP  RH WIND       PRES   REMARKS
OCEAN CITY     CLEAR     13  -4  46 NW9       30.47R WCI   1
SALISBURY      CLEAR     13  -2  51 NW8       30.47R WCI   2
BAY BRIDGE AP*   N/A     14  -4  44 W9G17     30.49R WCI   2
EASTON*        CLEAR     14   0  52 NW12G17   30.52R WCI   1

$$

MDZ017>025-141100-
SOUTHERN MARYLAND

CITY           SKY/WX    TMP DP  RH WIND       PRES   REMARKS
PATUXENT RIVER CLEAR     14  -3  47 W10G22    30.50R WCI   1
ST INIGOES     CLEAR     14  -1  51 NW9       30.50R WCI   2
LEONARDTOWN*   CLEAR     12  -4  48 MISG      30.51

$$

MDZ003>005-141100-
NORTH CENTRAL MARYLAND

CITY           SKY/WX    TMP DP  RH WIND       PRES   REMARKS
FREDERICK*     CLEAR     10   0  61 NW7       30.51R
HAGERSTOWN APT CLEAR      7  -5  57 NW7       30.43R
WESTMINSTER*   CLEAR      7  -2  66 W7        30.39R

$$

MDZ501>502-141100-
WESTERN MARYLAND

CITY           SKY/WX    TMP DP  RH WIND       PRES   REMARKS
OAKLAND*       CLOUDY     0  -4  85 W6        30.21R FOG
CUMBERLAND*    MOCLDY    12  -2  52 NW8       30.48R WCI   1

$$

VAZ025>031-141100-
SHENANDOAH VALLEY

CITY           SKY/WX    TMP DP  RH WIND       PRES   REMARKS
WINCHESTER*    FAIR      10   1  67 NW8       30.44R WCI  -1
FRONT ROYAL*   PTSUNNY   12   0  57 CALM      30.45R
LURAY*         FAIR      12  -2  52 NW5       30.44R
NEW MARKET*    FAIR       6  -2  70 CALM      30.43R
STAUNTON*      FAIR      10   1  68 SW3       30.44R
WAYNESBORO*    FAIR       7  -7  54 CALM      30.40R

$$

WVZ021-048>050-054>055-141100-
EASTERN WEST VIRGINIA PANHANDLE

CITY           SKY/WX    TMP DP  RH WIND       PRES   REMARKS
MARTINSBURG    FAIR      10  -4  53 NW9       30.46R WCI  -3
PETERSBURG*    FAIR      11  -2  56 CALM      30.44S

$$

VAZ036>039-050-141100-
CENTRAL FOOTHILLS

CITY           SKY/WX    TMP DP  RH WIND       PRES   REMARKS
CHARLOTTESVILL FAIR       9  -4  55 SW3       30.48R
CULPEPER*      FAIR       6   2  84 CALM      30.51R
ORANGE*        FAIR      10   1  67 CALM      30.51R
GORDONSVILLE*  FAIR       9   0  66 W3        30.49R
WARRENTON*     FAIR       9   4  80 CALM      30.50R

$$

VAZ055>057-141100-
NORTH AND CENTRAL PIEDMONT

CITY           SKY/WX    TMP DP  RH WIND       PRES   REMARKS
FREDERICKSBRG* FAIR       9   2  72 CALM      30.52R
STAFFORD*      FAIR       6   0  78 CALM      30.56R

$$

NCZ024-NYZ072-PAZ021-071-VAZ022-071-141100-
OTHER REGIONAL OBSERVATIONS

CITY           SKY/WX    TMP DP  RH WIND       PRES   REMARKS
NEW YORK CITY  CLEAR      3 -16  40 NW9G23    30.41R WCI -12
PHILADELPHIA   PTCLDY    10 -10  40 NW16      30.45R WCI  -7
PITTSBURGH     FLURRIES   0  -4  83 CALM      30.42R
ROANOKE        FAIR      11  -3  53 N7        30.45S
RICHMOND       FAIR      12  -2  53 N5        30.52R
RALEIGH        PTCLDY    16  -1  47 VRB3      30.49R

$$

ANZ530>537-141100-
MARINE OBSERVATIONS

STATION/POSITION TIME  TEMP    WIND        PRES
                       AIR SEA DIR/SP/G
                 (UTC) (F)     (DEG/KT/KT) (MB)
THOMAS PT LIGHT  1000   14 35  300/ 13/ 15 1033.5R
BALT KEY BRIDGE  0900   14     260/ 12/ 14 1031.6R
COVE POINT       0900   14     330/ 10/ 22 1032.6R
LEWISETTA        0900   17 33  340/ 11/ 15 1032.1R
SOLOMONS ISLAND  0900   15 37  330/ 18/ 22   N/A
PINEY POINT      0900          340/ 22/ 25   N/A

$$




USA.gov is the U.S. government's official web portal to all federal, state and local government web resources and services.